IRM117 LTFM-OIIE

Flight info

Callsign IRM117
Flight time 2h 42m
Altitude 37000
Route VICEN1R/35L VICEN UT380 ASMAP UL333 LATGA UT363 GURBU UA4 ERZ UN161 INDUR N449 TELLI M737 NETON P567 ULDUS P574 NAGMO
Aircraft A346/H-SDE2E3FGHIJ3J4J5M1RWXY/LB1D1

Departure

Time 2026-05-07 16:31
Airport İstanbul Airport (LTFM)

Arrival

Time 2026-05-07 19:13
Airport Imam Khomeini International Airport (OIIE)
Time Latitude Longitude Altitude Speed Heading
2026-05-07 15:55 41.26402 28.73556 352 ft 0 kts 71°
2026-05-07 16:19 41.26396 28.73535 352 ft 4 kts 71°
2026-05-07 16:19 41.26388 28.73503 353 ft 4 kts 75°
2026-05-07 16:20 41.26386 28.73474 353 ft 4 kts 104°
2026-05-07 16:20 41.26395 28.73453 353 ft 4 kts 140°
2026-05-07 16:20 41.26417 28.73437 353 ft 4 kts 159°
2026-05-07 16:20 41.26437 28.73427 353 ft 4 kts 161°
2026-05-07 16:21 41.26451 28.73421 353 ft 0 kts 161°
2026-05-07 16:24 41.26450 28.73421 342 ft 0 kts 161°
2026-05-07 16:25 41.26449 28.73422 342 ft 0 kts 161°
2026-05-07 16:25 41.26446 28.73423 352 ft 1 kts 161°
2026-05-07 16:25 41.26445 28.73423 351 ft 0 kts 161°
2026-05-07 16:26 41.26442 28.73425 350 ft 0 kts 161°
2026-05-07 16:26 41.26436 28.73427 354 ft 0 kts 161°
2026-05-07 16:26 41.26426 28.73432 347 ft 3 kts 161°
2026-05-07 16:26 41.26393 28.73446 349 ft 7 kts 161°
2026-05-07 16:27 41.26340 28.73471 351 ft 10 kts 161°
2026-05-07 16:27 41.26266 28.73503 352 ft 11 kts 169°
2026-05-07 16:27 41.26227 28.73466 351 ft 9 kts 242°
2026-05-07 16:27 41.26223 28.73384 350 ft 11 kts 268°
2026-05-07 16:28 41.26221 28.73259 349 ft 16 kts 268°
2026-05-07 16:28 41.26217 28.73096 348 ft 19 kts 268°
2026-05-07 16:28 41.26214 28.72911 342 ft 21 kts 268°
2026-05-07 16:28 41.26212 28.72745 342 ft 17 kts 269°
2026-05-07 16:29 41.26210 28.72589 345 ft 3 kts 269°
2026-05-07 16:29 41.26212 28.72564 350 ft 2 kts 302°
2026-05-07 16:29 41.26231 28.72546 352 ft 5 kts 328°
2026-05-07 16:29 41.26268 28.72530 350 ft 8 kts 349°
2026-05-07 16:30 41.26487 28.72519 352 ft 64 kts 359°
2026-05-07 16:30 41.27156 28.72504 351 ft 126 kts 359°
2026-05-07 16:30 41.28201 28.72477 351 ft 176 kts
2026-05-07 16:30 41.29508 28.72470 733 ft 192 kts
2026-05-07 16:31 41.30869 28.72459 1403 ft 198 kts 359°
2026-05-07 16:31 41.32242 28.72445 2136 ft 199 kts 358°
2026-05-07 16:31 41.33626 28.72456 2797 ft 200 kts 357°
2026-05-07 16:31 41.35032 28.72844 3288 ft 217 kts 27°
2026-05-07 16:32 41.36034 28.74401 3634 ft 239 kts 67°
2026-05-07 16:32 41.36239 28.76674 3969 ft 259 kts 91°
2026-05-07 16:32 41.36114 28.79191 4391 ft 278 kts 95°
2026-05-07 16:32 41.35919 28.81765 5047 ft 285 kts 95°
2026-05-07 16:33 41.35701 28.84410 5883 ft 287 kts 96°
2026-05-07 16:33 41.35479 28.87067 6733 ft 290 kts 97°
2026-05-07 16:33 41.34946 28.89675 7515 ft 293 kts 115°
2026-05-07 16:33 41.34005 28.92100 8358 ft 296 kts 120°
2026-05-07 16:34 41.32996 28.94476 9200 ft 299 kts 120°
2026-05-07 16:34 41.31976 28.96916 10051 ft 303 kts 118°
2026-05-07 16:34 41.30959 28.99423 10699 ft 313 kts 118°
2026-05-07 16:34 41.29912 29.02066 11141 ft 331 kts 117°
2026-05-07 16:35 41.28821 29.04860 11544 ft 349 kts 117°
2026-05-07 16:35 41.27694 29.07770 11931 ft 367 kts 117°
2026-05-07 16:35 41.26482 29.10911 12290 ft 385 kts 117°
2026-05-07 16:35 41.25251 29.14105 12794 ft 397 kts 117°
2026-05-07 16:36 41.23981 29.17400 13598 ft 401 kts 117°
2026-05-07 16:36 41.22703 29.20711 14399 ft 404 kts 117°
2026-05-07 16:36 41.21408 29.24066 15101 ft 408 kts 116°
2026-05-07 16:36 41.20098 29.27457 15782 ft 413 kts 116°
2026-05-07 16:37 41.18789 29.30841 16455 ft 418 kts 116°
2026-05-07 16:37 41.17448 29.34300 17133 ft 423 kts 116°
2026-05-07 16:37 41.16081 29.37823 17765 ft 429 kts 116°
2026-05-07 16:37 41.14701 29.41387 18400 ft 435 kts 116°
2026-05-07 16:38 41.13308 29.44981 18962 ft 439 kts 116°
2026-05-07 16:38 41.11910 29.48577 19531 ft 444 kts 116°
2026-05-07 16:38 41.10481 29.52247 20090 ft 449 kts 116°
2026-05-07 16:38 41.09034 29.55958 20644 ft 453 kts 115°
2026-05-07 16:39 41.07591 29.59651 21193 ft 458 kts 115°
2026-05-07 16:39 41.06111 29.63432 21718 ft 463 kts 115°
2026-05-07 16:39 41.04613 29.67257 22233 ft 469 kts 115°
2026-05-07 16:39 41.03102 29.71116 22772 ft 473 kts 115°
2026-05-07 16:40 41.01573 29.75013 23314 ft 478 kts 115°
2026-05-07 16:40 41.00021 29.78962 23814 ft 483 kts 115°
2026-05-07 16:40 40.98479 29.82881 24232 ft 487 kts 115°
2026-05-07 16:40 40.96901 29.86888 24704 ft 491 kts 115°
2026-05-07 16:41 40.95304 29.90931 25132 ft 495 kts 115°
2026-05-07 16:41 40.93704 29.94981 25550 ft 499 kts 115°
2026-05-07 16:41 40.92096 29.99043 25996 ft 503 kts 115°
2026-05-07 16:41 40.90464 30.03161 26448 ft 506 kts 115°
2026-05-07 16:42 40.88819 30.07306 26873 ft 510 kts 115°
2026-05-07 16:42 40.87174 30.11445 27292 ft 513 kts 115°
2026-05-07 16:42 40.85495 30.15655 27734 ft 517 kts 115°
2026-05-07 16:42 40.83824 30.19842 28103 ft 521 kts 115°
2026-05-07 16:43 40.82123 30.24106 28494 ft 525 kts 115°
2026-05-07 16:43 40.80414 30.28384 29021 ft 526 kts 115°
2026-05-07 16:43 40.78703 30.32655 29680 ft 524 kts 115°
2026-05-07 16:43 40.76992 30.36916 30299 ft 522 kts 115°
2026-05-07 16:44 40.75298 30.41131 30858 ft 521 kts 115°
2026-05-07 16:44 40.73591 30.45367 31345 ft 521 kts 115°
2026-05-07 16:44 40.71888 30.49594 31868 ft 520 kts 115°
2026-05-07 16:44 40.70202 30.53775 32392 ft 519 kts 115°
2026-05-07 16:45 40.68494 30.57999 32931 ft 517 kts 115°
2026-05-07 16:45 40.66802 30.62181 33463 ft 516 kts 115°
2026-05-07 16:45 40.65174 30.66342 33977 ft 513 kts 112°
2026-05-07 16:45 40.63698 30.70637 34432 ft 510 kts 109°
2026-05-07 16:46 40.62427 30.74998 34871 ft 507 kts 105°
2026-05-07 16:46 40.61373 30.79372 35308 ft 503 kts 102°
2026-05-07 16:46 40.60430 30.83824 35703 ft 502 kts 101°
2026-05-07 16:46 40.59502 30.88283 36007 ft 503 kts 101°
2026-05-07 16:47 40.58572 30.92740 36319 ft 505 kts 101°
2026-05-07 16:47 40.57642 30.97168 36628 ft 506 kts 101°
2026-05-07 16:47 40.56685 31.01672 36903 ft 507 kts 102°
2026-05-07 16:47 40.55730 31.06152 37119 ft 508 kts 102°
2026-05-07 16:48 40.54781 31.10587 37128 ft 509 kts 102°
2026-05-07 16:48 40.52852 31.19570 37138 ft 509 kts 102°
2026-05-07 16:49 40.50922 31.28530 37147 ft 509 kts 102°
2026-05-07 16:49 40.48974 31.37520 37161 ft 509 kts 102°
2026-05-07 16:50 40.47024 31.46471 37146 ft 509 kts 103°
2026-05-07 16:50 40.45082 31.55375 37160 ft 509 kts 103°
2026-05-07 16:51 40.43122 31.64345 37153 ft 509 kts 103°
2026-05-07 16:51 40.41163 31.73257 37154 ft 509 kts 103°
2026-05-07 16:52 40.39184 31.82213 37154 ft 509 kts 103°
2026-05-07 16:52 40.37212 31.91102 37161 ft 509 kts 103°
2026-05-07 16:53 40.35214 32.00048 37159 ft 508 kts 103°
2026-05-07 16:53 40.33225 32.08918 37157 ft 508 kts 102°
2026-05-07 16:54 40.31437 32.17897 37171 ft 508 kts 101°
2026-05-07 16:54 40.29672 32.26885 37164 ft 509 kts 101°
2026-05-07 16:55 40.27897 32.35847 37157 ft 509 kts 101°
2026-05-07 16:55 40.26104 32.44839 37170 ft 508 kts 101°
2026-05-07 16:56 40.24316 32.53769 37169 ft 508 kts 101°
2026-05-07 16:56 40.21604 32.67232 37168 ft 508 kts 102°
2026-05-07 16:57 40.19801 32.76129 37181 ft 508 kts 102°
2026-05-07 16:57 40.17978 32.85076 37161 ft 508 kts 102°
2026-05-07 16:58 40.16258 32.94053 37157 ft 506 kts 98°
2026-05-07 16:58 40.15217 33.03110 37157 ft 502 kts 91°
2026-05-07 16:59 40.14956 33.12227 37166 ft 498 kts 84°
2026-05-07 16:59 40.15211 33.21251 37162 ft 497 kts 83°
2026-05-07 17:00 40.15490 33.30327 37153 ft 497 kts 83°
2026-05-07 17:00 40.15750 33.39360 37161 ft 498 kts 84°
2026-05-07 17:01 40.15993 33.48442 37157 ft 498 kts 84°
2026-05-07 17:01 40.16228 33.57502 37146 ft 499 kts 84°
2026-05-07 17:02 40.16456 33.66593 37148 ft 498 kts 84°
2026-05-07 17:02 40.16671 33.75604 37136 ft 498 kts 85°
2026-05-07 17:03 40.16439 33.84717 37134 ft 502 kts 91°
2026-05-07 17:03 40.15447 33.93757 37128 ft 504 kts 96°
2026-05-07 17:04 40.14389 34.02864 37122 ft 503 kts 95°
2026-05-07 17:04 40.13405 34.11902 37123 ft 503 kts 94°
2026-05-07 17:05 40.12421 34.20932 37135 ft 503 kts 95°
2026-05-07 17:05 40.11422 34.30030 37124 ft 503 kts 95°
2026-05-07 17:06 40.10417 34.39100 37137 ft 503 kts 95°
2026-05-07 17:06 40.09413 34.48106 37138 ft 503 kts 95°
2026-05-07 17:07 40.08400 34.57135 37146 ft 503 kts 95°
2026-05-07 17:07 40.07372 34.66208 37141 ft 503 kts 95°
2026-05-07 17:08 40.06513 34.73739 37148 ft 503 kts 95°
2026-05-07 17:08 40.05473 34.82799 37144 ft 503 kts 95°
2026-05-07 17:09 40.04435 34.91802 37150 ft 503 kts 95°
2026-05-07 17:09 40.03381 35.00863 37147 ft 503 kts 96°
2026-05-07 17:10 40.02324 35.09874 37150 ft 503 kts 96°
2026-05-07 17:10 40.01262 35.18865 37147 ft 503 kts 96°
2026-05-07 17:11 40.00185 35.27924 37150 ft 502 kts 96°
2026-05-07 17:11 39.99107 35.36900 37145 ft 502 kts 96°
2026-05-07 17:12 39.97985 35.45926 37144 ft 503 kts 96°
2026-05-07 17:12 39.96848 35.54900 37155 ft 503 kts 97°
2026-05-07 17:13 39.95696 35.63943 37151 ft 503 kts 97°
2026-05-07 17:13 39.94546 35.72915 37154 ft 503 kts 97°
2026-05-07 17:14 39.93383 35.81923 37163 ft 503 kts 97°
2026-05-07 17:14 39.92211 35.90942 37167 ft 503 kts 97°
2026-05-07 17:15 39.91037 35.99958 37168 ft 503 kts 97°
2026-05-07 17:15 39.89863 36.08914 37187 ft 503 kts 97°
2026-05-07 17:16 39.88669 36.17929 37176 ft 503 kts 97°
2026-05-07 17:16 39.87476 36.26891 37177 ft 504 kts 97°
2026-05-07 17:17 39.86175 36.35896 37179 ft 504 kts 98°
2026-05-07 17:17 39.84944 36.44852 37180 ft 504 kts 97°
2026-05-07 17:18 39.83757 36.53877 37181 ft 504 kts 97°
2026-05-07 17:18 39.82558 36.62852 37203 ft 504 kts 97°
2026-05-07 17:19 39.81340 36.71844 37227 ft 504 kts 97°
2026-05-07 17:19 39.80151 36.80895 37239 ft 504 kts 95°
2026-05-07 17:20 39.79554 36.89919 37253 ft 501 kts 89°
2026-05-07 17:20 39.79732 36.98984 37239 ft 498 kts 83°
2026-05-07 17:21 39.80441 37.07919 37226 ft 497 kts 81°
2026-05-07 17:21 39.81189 37.16883 37211 ft 497 kts 81°
2026-05-07 17:22 39.81914 37.25817 37192 ft 497 kts 81°
2026-05-07 17:22 39.82629 37.34796 37188 ft 498 kts 82°
2026-05-07 17:23 39.83340 37.43776 37173 ft 496 kts 82°
2026-05-07 17:23 39.84029 37.52665 37172 ft 496 kts 82°
2026-05-07 17:24 39.84711 37.61625 37173 ft 496 kts 82°
2026-05-07 17:24 39.85383 37.70548 37173 ft 496 kts 82°
2026-05-07 17:25 39.86051 37.79506 37182 ft 496 kts 82°
2026-05-07 17:25 39.86710 37.88495 37173 ft 496 kts 82°
2026-05-07 17:26 39.87357 37.97408 37174 ft 496 kts 82°
2026-05-07 17:26 39.88016 38.06353 37173 ft 496 kts 82°
2026-05-07 17:27 39.88667 38.15261 37171 ft 496 kts 83°
2026-05-07 17:27 39.89313 38.24233 37170 ft 497 kts 83°
2026-05-07 17:28 39.89951 38.33225 37170 ft 497 kts 83°
2026-05-07 17:28 39.90580 38.42210 37171 ft 497 kts 83°
2026-05-07 17:29 39.91201 38.51169 37168 ft 497 kts 83°
2026-05-07 17:29 39.91820 38.60204 37168 ft 497 kts 83°
2026-05-07 17:30 39.92427 38.69158 37174 ft 497 kts 83°
2026-05-07 17:30 39.93029 38.78189 37172 ft 498 kts 83°
2026-05-07 17:31 39.93611 38.87124 37165 ft 498 kts 84°
2026-05-07 17:31 39.93863 38.96188 37169 ft 498 kts 87°
2026-05-07 17:32 39.93990 39.05211 37168 ft 498 kts 88°
2026-05-07 17:32 39.94129 39.14261 37174 ft 499 kts 88°
2026-05-07 17:33 39.94280 39.23297 37171 ft 499 kts 88°
2026-05-07 17:33 39.94417 39.32389 37161 ft 499 kts 88°
2026-05-07 17:34 39.94545 39.41425 37169 ft 499 kts 88°
2026-05-07 17:34 39.94665 39.50513 37181 ft 499 kts 88°
2026-05-07 17:35 39.94782 39.59554 37177 ft 500 kts 88°
2026-05-07 17:35 39.94899 39.68661 37178 ft 501 kts 89°
2026-05-07 17:36 39.95003 39.77766 37177 ft 501 kts 89°
2026-05-07 17:36 39.95097 39.86834 37175 ft 501 kts 89°
2026-05-07 17:37 39.95188 39.95957 37169 ft 501 kts 89°
2026-05-07 17:37 39.95275 40.05031 37175 ft 503 kts 89°
2026-05-07 17:38 39.95350 40.14204 37180 ft 504 kts 89°
2026-05-07 17:38 39.95414 40.23355 37179 ft 504 kts 89°
2026-05-07 17:39 39.95471 40.32439 37178 ft 503 kts 89°
2026-05-07 17:39 39.95523 40.41631 37176 ft 504 kts 90°
2026-05-07 17:40 39.95565 40.50761 37180 ft 505 kts 90°
2026-05-07 17:40 39.95598 40.59914 37191 ft 506 kts 90°
2026-05-07 17:41 39.95627 40.69121 37187 ft 506 kts 90°
2026-05-07 17:41 39.95657 40.78314 37193 ft 506 kts 90°
2026-05-07 17:42 39.95678 40.87464 37196 ft 507 kts 90°
2026-05-07 17:42 39.95686 40.96693 37209 ft 508 kts 90°
2026-05-07 17:43 39.95686 41.05928 37215 ft 508 kts 91°
2026-05-07 17:43 39.95679 41.15154 37208 ft 508 kts 91°
2026-05-07 17:44 39.95941 41.24373 37200 ft 509 kts 85°
2026-05-07 17:44 39.96623 41.33589 37207 ft 510 kts 85°
2026-05-07 17:45 39.97315 41.42762 37204 ft 510 kts 85°
2026-05-07 17:45 39.97994 41.51991 37211 ft 510 kts 85°
2026-05-07 17:46 39.98661 41.61238 37208 ft 510 kts 85°
2026-05-07 17:46 39.99313 41.70421 37200 ft 510 kts 85°
2026-05-07 17:47 39.99979 41.79671 37208 ft 510 kts 85°
2026-05-07 17:47 40.00653 41.88858 37209 ft 510 kts 85°
2026-05-07 17:48 40.01320 41.98079 37207 ft 510 kts 85°
2026-05-07 17:48 40.01974 42.07313 37207 ft 510 kts 85°
2026-05-07 17:49 40.02617 42.16496 37205 ft 510 kts 86°
2026-05-07 17:49 40.03259 42.25754 37203 ft 511 kts 86°
2026-05-07 17:50 40.03886 42.34964 37212 ft 511 kts 86°
2026-05-07 17:50 40.04511 42.44249 37208 ft 512 kts 86°
2026-05-07 17:51 40.05101 42.53551 37212 ft 512 kts 86°
2026-05-07 17:51 40.05669 42.62822 37206 ft 512 kts 87°
2026-05-07 17:52 40.06230 42.72085 37194 ft 512 kts 87°
2026-05-07 17:52 40.06786 42.81359 37202 ft 514 kts 87°
2026-05-07 17:53 40.07331 42.90656 37203 ft 514 kts 87°
2026-05-07 17:53 40.07878 42.99948 37202 ft 514 kts 87°
2026-05-07 17:54 40.08426 43.09320 37203 ft 514 kts 87°
2026-05-07 17:54 40.08957 43.18594 37201 ft 514 kts 88°
2026-05-07 17:55 40.09398 43.26381 37190 ft 516 kts 88°
2026-05-07 17:55 40.09998 43.37282 37193 ft 517 kts 88°
2026-05-07 17:56 40.10512 43.46682 37187 ft 517 kts 88°
2026-05-07 17:56 40.11012 43.56023 37183 ft 517 kts 88°
2026-05-07 17:57 40.11424 43.63859 37176 ft 516 kts 88°
2026-05-07 17:57 40.11705 43.73201 37164 ft 515 kts 91°
2026-05-07 17:58 40.11864 43.82581 37152 ft 517 kts 91°
2026-05-07 17:58 40.12009 43.92006 37156 ft 517 kts 92°
2026-05-07 17:59 40.12151 44.01421 37139 ft 517 kts 92°
2026-05-07 17:59 40.12287 44.10773 37130 ft 516 kts 92°
2026-05-07 18:00 40.12419 44.20180 37107 ft 517 kts 92°
2026-05-07 18:00 40.12541 44.29630 37125 ft 519 kts 92°
2026-05-07 18:01 40.12653 44.39038 37130 ft 519 kts 92°
2026-05-07 18:01 40.12761 44.48541 37135 ft 519 kts 92°
2026-05-07 18:02 40.12906 44.62680 37104 ft 519 kts 92°
2026-05-07 18:03 40.12995 44.72102 37121 ft 521 kts 93°
2026-05-07 18:03 40.13072 44.81592 37136 ft 521 kts 93°
2026-05-07 18:04 40.13141 44.91063 37140 ft 521 kts 93°
2026-05-07 18:04 40.13205 45.00567 37146 ft 522 kts 93°
2026-05-07 18:05 40.13266 45.10039 37135 ft 522 kts 94°
2026-05-07 18:05 40.13314 45.19582 37148 ft 523 kts 94°
2026-05-07 18:06 40.13353 45.29068 37153 ft 523 kts 94°
2026-05-07 18:06 40.13390 45.38600 37153 ft 523 kts 94°
2026-05-07 18:07 40.13413 45.48103 37159 ft 524 kts 94°
2026-05-07 18:07 40.13429 45.57639 37141 ft 525 kts 94°
2026-05-07 18:08 40.13445 45.67252 37155 ft 526 kts 94°
2026-05-07 18:08 40.13447 45.76799 37155 ft 527 kts 94°
2026-05-07 18:09 40.13439 45.86424 37159 ft 528 kts 94°
2026-05-07 18:09 40.13443 45.96005 37149 ft 529 kts 93°
2026-05-07 18:10 40.13715 46.05676 37145 ft 531 kts 92°
2026-05-07 18:10 40.14013 46.15330 37155 ft 532 kts 92°
2026-05-07 18:11 40.14298 46.24979 37148 ft 532 kts 92°
2026-05-07 18:11 40.14568 46.34717 37144 ft 533 kts 92°
2026-05-07 18:12 40.14829 46.44340 37144 ft 532 kts 92°
2026-05-07 18:12 40.15082 46.54055 37140 ft 532 kts 92°
2026-05-07 18:13 40.15325 46.63703 37136 ft 532 kts 92°
2026-05-07 18:13 40.15561 46.73436 37130 ft 532 kts 92°
2026-05-07 18:14 40.15789 46.83122 37122 ft 532 kts 92°
2026-05-07 18:14 40.16008 46.92760 37122 ft 532 kts 92°
2026-05-07 18:15 40.16220 47.02469 37089 ft 533 kts 93°
2026-05-07 18:15 40.16423 47.12176 37106 ft 534 kts 93°
2026-05-07 18:16 40.16614 47.21867 37104 ft 534 kts 93°
2026-05-07 18:16 40.16702 47.31624 37092 ft 531 kts 98°
2026-05-07 18:17 40.15574 47.41068 37094 ft 520 kts 111°
2026-05-07 18:17 40.13024 47.49725 37094 ft 508 kts 124°
2026-05-07 18:18 40.09310 47.57478 37097 ft 500 kts 132°
2026-05-07 18:18 40.05318 47.64926 37096 ft 499 kts 133°
2026-05-07 18:19 40.01355 47.72348 37086 ft 500 kts 132°
2026-05-07 18:19 39.97380 47.79826 37097 ft 500 kts 132°
2026-05-07 18:20 39.93423 47.87269 37097 ft 500 kts 132°
2026-05-07 18:20 39.89443 47.94742 37087 ft 500 kts 132°
2026-05-07 18:21 39.85485 48.02155 37096 ft 500 kts 132°
2026-05-07 18:21 39.81495 48.09605 37097 ft 500 kts 133°
2026-05-07 18:22 39.77528 48.16999 37091 ft 500 kts 133°
2026-05-07 18:22 39.73385 48.24210 37110 ft 496 kts 135°
2026-05-07 18:23 39.69147 48.31294 37100 ft 496 kts 136°
2026-05-07 18:23 39.64880 48.38406 37115 ft 496 kts 136°
2026-05-07 18:24 39.60639 48.45456 37118 ft 496 kts 136°
2026-05-07 18:24 39.56399 48.52489 37093 ft 496 kts 136°
2026-05-07 18:25 39.52129 48.59561 37114 ft 496 kts 136°
2026-05-07 18:25 39.47879 48.66581 37118 ft 496 kts 136°
2026-05-07 18:26 39.43612 48.73615 37099 ft 496 kts 136°
2026-05-07 18:26 39.39360 48.80609 37115 ft 496 kts 136°
2026-05-07 18:27 39.35084 48.87624 37122 ft 496 kts 136°
2026-05-07 18:27 39.30799 48.94644 37108 ft 496 kts 137°
2026-05-07 18:28 39.26536 49.01607 37120 ft 496 kts 137°
2026-05-07 18:28 39.22244 49.08603 37124 ft 496 kts 137°
2026-05-07 18:29 39.17968 49.15558 37125 ft 496 kts 137°
2026-05-07 18:29 39.13692 49.22498 37124 ft 496 kts 137°
2026-05-07 18:30 39.09379 49.29482 37132 ft 496 kts 137°
2026-05-07 18:30 39.05094 49.36414 37123 ft 496 kts 137°
2026-05-07 18:31 39.00767 49.43385 37129 ft 496 kts 137°
2026-05-07 18:31 38.96469 49.50297 37104 ft 496 kts 138°
2026-05-07 18:32 38.92084 49.57170 37109 ft 489 kts 144°
2026-05-07 18:32 38.89537 49.59966 37118 ft 474 kts 155°
2026-05-07 18:32 38.86736 49.62116 37124 ft 463 kts 162°
2026-05-07 18:33 38.80977 49.65753 37120 ft 462 kts 164°
2026-05-07 18:33 38.75173 49.69386 37125 ft 463 kts 163°
2026-05-07 18:34 38.69415 49.73016 37123 ft 463 kts 163°
2026-05-07 18:34 38.63621 49.76679 37110 ft 463 kts 163°
2026-05-07 18:35 38.57859 49.80322 37123 ft 463 kts 163°
2026-05-07 18:35 38.52064 49.83980 37094 ft 463 kts 163°
2026-05-07 18:36 38.46265 49.87636 37116 ft 463 kts 163°
2026-05-07 18:36 38.40507 49.91260 37120 ft 463 kts 163°
2026-05-07 18:37 38.34728 49.94891 37103 ft 463 kts 164°
2026-05-07 18:37 38.28928 49.98528 37112 ft 463 kts 164°
2026-05-07 18:38 38.23171 50.02130 37122 ft 463 kts 164°
2026-05-07 18:38 38.17380 50.05751 37107 ft 462 kts 164°
2026-05-07 18:39 38.11623 50.09341 37116 ft 462 kts 164°
2026-05-07 18:39 38.05835 50.12945 37091 ft 462 kts 164°
2026-05-07 18:40 38.00076 50.16526 37113 ft 462 kts 164°
2026-05-07 18:40 37.94285 50.20116 37112 ft 462 kts 164°
2026-05-07 18:41 37.88502 50.23700 37104 ft 462 kts 164°
2026-05-07 18:41 37.82753 50.27254 37112 ft 462 kts 164°
2026-05-07 18:42 37.76971 50.30821 37110 ft 462 kts 164°
2026-05-07 18:42 37.72160 50.33786 37111 ft 462 kts 165°
2026-05-07 18:43 37.66389 50.37335 37111 ft 462 kts 165°
2026-05-07 18:43 37.60599 50.40893 37079 ft 461 kts 165°
2026-05-07 18:44 37.54867 50.44408 37100 ft 461 kts 165°
2026-05-07 18:44 37.49092 50.47941 37106 ft 461 kts 165°
2026-05-07 18:45 37.43306 50.51477 37095 ft 461 kts 165°
2026-05-07 18:45 37.37532 50.54999 37104 ft 461 kts 165°
2026-05-07 18:46 37.31746 50.58520 37106 ft 461 kts 165°
2026-05-07 18:46 37.25989 50.62020 37102 ft 461 kts 165°
2026-05-07 18:47 37.20205 50.65529 37089 ft 461 kts 165°
2026-05-07 18:47 37.14444 50.69019 37079 ft 462 kts 165°
2026-05-07 18:48 37.08677 50.72507 37075 ft 462 kts 165°
2026-05-07 18:48 37.02866 50.76015 37075 ft 462 kts 165°
2026-05-07 18:49 36.97103 50.79488 37073 ft 462 kts 165°
2026-05-07 18:49 36.91298 50.82981 37075 ft 462 kts 165°
2026-05-07 18:50 36.85510 50.86457 37058 ft 462 kts 166°
2026-05-07 18:50 36.79738 50.89917 37078 ft 463 kts 166°
2026-05-07 18:51 36.73924 50.93396 37089 ft 463 kts 166°
2026-05-07 18:51 36.71002 50.95126 36882 ft 461 kts 167°
2026-05-07 18:51 36.68019 50.96375 36292 ft 443 kts 177°
2026-05-07 18:51 36.65051 50.96974 35596 ft 433 kts 185°
2026-05-07 18:52 36.62063 50.97029 34789 ft 427 kts 191°
2026-05-07 18:52 36.59085 50.96865 34183 ft 426 kts 192°
2026-05-07 18:52 36.56128 50.96699 33569 ft 424 kts 192°
2026-05-07 18:52 36.53174 50.96532 32751 ft 426 kts 191°
2026-05-07 18:53 36.50188 50.96358 31831 ft 431 kts 191°
2026-05-07 18:53 36.47178 50.96187 30961 ft 435 kts 191°
2026-05-07 18:53 36.44144 50.96026 30130 ft 438 kts 191°
2026-05-07 18:53 36.41123 50.95864 28928 ft 439 kts 190°
2026-05-07 18:54 36.38068 50.95696 27251 ft 440 kts 189°
2026-05-07 18:54 36.35020 50.95534 26815 ft 430 kts 189°
2026-05-07 18:54 36.32051 50.95383 26273 ft 425 kts 189°
2026-05-07 18:54 36.29133 50.95228 25730 ft 421 kts 189°
2026-05-07 18:55 36.26218 50.95072 25196 ft 416 kts 189°
2026-05-07 18:55 36.23336 50.94919 24677 ft 411 kts 189°
2026-05-07 18:55 36.20474 50.94766 24189 ft 409 kts 188°
2026-05-07 18:55 36.17641 50.94614 23662 ft 406 kts 188°
2026-05-07 18:56 36.14859 50.94466 23088 ft 402 kts 188°
2026-05-07 18:56 36.12070 50.94320 22569 ft 397 kts 188°
2026-05-07 18:56 36.09349 50.94176 22121 ft 392 kts 188°
2026-05-07 18:56 36.06640 50.94031 21654 ft 387 kts 188°
2026-05-07 18:57 36.03954 50.93883 21213 ft 384 kts 188°
2026-05-07 18:57 36.01297 50.93741 20767 ft 381 kts 188°
2026-05-07 18:57 35.98666 50.93597 20319 ft 377 kts 188°
2026-05-07 18:57 35.96045 50.93453 19885 ft 374 kts 188°
2026-05-07 18:58 35.93434 50.93310 19439 ft 372 kts 188°
2026-05-07 18:58 35.90857 50.93169 18981 ft 370 kts 188°
2026-05-07 18:58 35.88327 50.93033 18552 ft 368 kts 188°
2026-05-07 18:58 35.85775 50.92896 18088 ft 366 kts 188°
2026-05-07 18:59 35.83224 50.92760 17612 ft 364 kts 188°
2026-05-07 18:59 35.80697 50.92626 17172 ft 362 kts 188°
2026-05-07 18:59 35.78181 50.92492 16737 ft 360 kts 188°
2026-05-07 18:59 35.75678 50.92358 16294 ft 359 kts 187°
2026-05-07 19:00 35.73208 50.92227 15876 ft 357 kts 187°
2026-05-07 19:00 35.70725 50.92095 15435 ft 356 kts 187°
2026-05-07 19:00 35.68251 50.91964 15001 ft 355 kts 187°
2026-05-07 19:00 35.65807 50.91835 14586 ft 355 kts 187°
2026-05-07 19:01 35.63332 50.91705 14164 ft 354 kts 187°
2026-05-07 19:01 35.60846 50.91573 13722 ft 354 kts 187°
2026-05-07 19:01 35.58417 50.91444 13262 ft 353 kts 187°
2026-05-07 19:01 35.55969 50.91314 12838 ft 351 kts 187°
2026-05-07 19:02 35.53530 50.91187 12414 ft 349 kts 186°
2026-05-07 19:02 35.51122 50.91060 12003 ft 347 kts 186°
2026-05-07 19:02 35.48715 50.90939 11604 ft 345 kts 185°
2026-05-07 19:02 35.46322 50.91317 11151 ft 351 kts 166°
2026-05-07 19:03 35.44147 50.92691 10874 ft 351 kts 146°
2026-05-07 19:03 35.42514 50.94837 10727 ft 346 kts 127°
2026-05-07 19:03 35.41292 50.97331 10622 ft 334 kts 123°
2026-05-07 19:03 35.40155 50.99772 10505 ft 322 kts 123°
2026-05-07 19:04 35.39063 51.02118 10386 ft 310 kts 123°
2026-05-07 19:04 35.38015 51.04354 10297 ft 299 kts 124°
2026-05-07 19:04 35.36996 51.06514 10215 ft 286 kts 124°
2026-05-07 19:04 35.36012 51.08591 10136 ft 274 kts 124°
2026-05-07 19:05 35.35072 51.10567 10054 ft 262 kts 124°
2026-05-07 19:05 35.34161 51.12480 9884 ft 263 kts 124°
2026-05-07 19:05 35.33241 51.14424 9572 ft 262 kts 123°
2026-05-07 19:05 35.32360 51.16389 9261 ft 260 kts 122°
2026-05-07 19:06 35.31508 51.18315 8981 ft 258 kts 122°
2026-05-07 19:06 35.29802 51.22162 8451 ft 257 kts 122°
2026-05-07 19:06 35.28944 51.24087 8180 ft 257 kts 122°
2026-05-07 19:07 35.28080 51.26017 7900 ft 256 kts 121°
2026-05-07 19:07 35.27236 51.27919 7622 ft 256 kts 119°
2026-05-07 19:07 35.26752 51.30044 7306 ft 263 kts 94°
2026-05-07 19:07 35.27057 51.32224 7006 ft 265 kts 66°
2026-05-07 19:08 35.28126 51.34053 6719 ft 263 kts 40°
2026-05-07 19:08 35.29511 51.35490 6471 ft 259 kts 36°
2026-05-07 19:08 35.30968 51.36751 6268 ft 254 kts 30°
2026-05-07 19:08 35.32521 51.37595 6206 ft 238 kts
2026-05-07 19:09 35.34097 51.37365 6185 ft 222 kts 330°
2026-05-07 19:09 35.35238 51.36272 6211 ft 197 kts 309°
2026-05-07 19:09 35.36010 51.34936 6173 ft 189 kts 297°
2026-05-07 19:09 35.36571 51.33469 6137 ft 190 kts 291°
2026-05-07 19:10 35.37046 51.31978 6009 ft 190 kts 288°
2026-05-07 19:10 35.37487 51.30452 5742 ft 189 kts 287°
2026-05-07 19:10 35.37904 51.28942 5376 ft 183 kts 287°
2026-05-07 19:10 35.38300 51.27499 5090 ft 173 kts 287°
2026-05-07 19:11 35.38671 51.26148 4803 ft 163 kts 288°
2026-05-07 19:11 35.39022 51.24877 4578 ft 154 kts 288°
2026-05-07 19:11 35.39368 51.23622 4401 ft 155 kts 288°
2026-05-07 19:11 35.39715 51.22367 4214 ft 154 kts 289°
2026-05-07 19:12 35.40060 51.21124 4032 ft 156 kts 288°
2026-05-07 19:12 35.40403 51.19849 3836 ft 158 kts 288°
2026-05-07 19:12 35.40774 51.18571 3637 ft 156 kts 287°
2026-05-07 19:12 35.41111 51.17323 3404 ft 153 kts 288°
2026-05-07 19:13 35.41452 51.16101 3278 ft 148 kts 289°
2026-05-07 19:13 35.41718 51.15142 3294 ft 87 kts 288°
2026-05-07 19:13 35.41843 51.14695 3296 ft 28 kts 288°
2026-05-07 19:13 35.41898 51.14499 3294 ft 22 kts 289°
2026-05-07 19:14 35.41926 51.14313 3295 ft 22 kts 272°
2026-05-07 19:14 35.41911 51.14119 3294 ft 23 kts 262°
2026-05-07 19:14 35.41890 51.13998 3296 ft 13 kts 258°
2026-05-07 19:14 35.41869 51.13912 3296 ft 5 kts 207°
2026-05-07 19:15 35.41825 51.13893 3299 ft 8 kts 190°
2026-05-07 19:15 35.41777 51.13914 3296 ft 8 kts 132°
2026-05-07 19:15 35.41744 51.13983 3296 ft 10 kts 117°
2026-05-07 19:15 35.41715 51.14074 3295 ft 13 kts 106°
2026-05-07 19:16 35.41686 51.14191 3293 ft 16 kts 108°
2026-05-07 19:16 35.41655 51.14299 3293 ft 12 kts 111°
2026-05-07 19:16 35.41623 51.14398 3293 ft 13 kts 111°
2026-05-07 19:16 35.41592 51.14519 3286 ft 17 kts 105°
2026-05-07 19:17 35.41558 51.14671 3285 ft 19 kts 105°
2026-05-07 19:17 35.41510 51.14730 3281 ft 10 kts 169°
2026-05-07 19:17 35.41431 51.14717 3280 ft 13 kts 194°
2026-05-07 19:17 35.41344 51.14739 3280 ft 15 kts 131°
2026-05-07 19:18 35.41299 51.14875 3277 ft 19 kts 109°
2026-05-07 19:18 35.41257 51.15026 3277 ft 19 kts 109°
2026-05-07 19:18 35.41227 51.15134 3275 ft 12 kts 109°
2026-05-07 19:18 35.41197 51.15242 3279 ft 14 kts 109°
2026-05-07 19:19 35.41161 51.15372 3276 ft 18 kts 109°
2026-05-07 19:19 35.41120 51.15523 3278 ft 15 kts 109°
2026-05-07 19:19 35.41101 51.15576 3275 ft 4 kts 125°
2026-05-07 19:19 35.41075 51.15600 3275 ft 5 kts 160°
2026-05-07 19:20 35.41033 51.15602 3276 ft 4 kts 189°
2026-05-07 19:20 35.41026 51.15600 3277 ft 0 kts 191°